Lapse_Rate
7.2 6.5 6.5 6.5 6.5 6.5 6.5 6.5 6.5 6.5 6.5 6.5 6.5 6.5 6.5 7.0 7.2 7.1 7.4 7.6 7.8 8.1 8.7 9.0 9.2 9.3 9.4 9.5 9.1 8.6 8.4 8.0 8.1 8.6 9.2 7.7 8.1 7.5 9.2 8.7 9.2 7.4 6.9 6.8
6.5 6.5 6.5 6.5 6.5 6.5 6.5 6.5 6.5 6.5 6.5 6.5 6.5 6.5 6.5 6.7 6.9 7.2 7.4 7.6 7.8 8.1 8.5 8.8 9.1 9.2 9.3 9.4 9.4 9.3 9.3 9.3 9.5 9.5 9.6 9.4 8.9 8.4 7.8 7.7 7.0 7.0 7.8 6.9
6.5 6.5 6.8 6.5 6.5 6.5 6.5 6.5 6.5 6.5 6.5 6.5 6.5 6.5 6.5 6.6 7.1 7.4 7.6 7.9 8.0 8.1 8.3 8.6 8.8 9.0 9.2 9.2 9.1 9.2 9.4 9.6 9.7 9.6 9.6 9.6 9.6 9.6 9.5 9.5 9.5 8.5 7.1 7.2
6.5 6.7 6.5 6.5 6.5 6.5 6.5 6.5 6.5 6.5 6.5 6.5 6.5 6.5 6.5 6.5 6.5 6.7 7.2 7.6 7.9 8.1 8.5 8.7 8.7 8.9 9.1 9.1 9.3 9.4 9.5 9.6 9.7 9.7 9.5 9.3 9.2 9.0 9.4 9.6 9.7 9.6 9.5 8.1
6.5 6.5 6.5 6.5 6.5 6.5 6.5 6.5 6.5 6.5 6.5 6.5 6.5 6.5 6.5 6.5 6.5 6.5 7.0 7.5 7.9 8.3 8.4 8.6 8.8 8.9 9.2 9.2 9.1 9.3 9.5 9.5 9.6 9.3 9.3 9.3 9.2 9.4 9.6 9.6 9.5 9.5 9.7 7.6
6.5 7.3 6.6 6.5 6.5 6.5 6.5 6.5 6.5 6.5 6.5 6.5 6.5 6.5 6.5 6.5 6.5 6.5 7.1 7.6 7.9 8.3 8.5 8.8 9.0 9.1 9.1 9.3 9.3 9.3 9.4 9.4 9.5 9.1 9.4 9.2 8.9 8.8 9.0 9.2 9.2 9.4 9.5 9.5
6.5 6.5 6.7 7.0 6.5 6.5 6.5 6.5 6.5 6.5 6.5 6.5 6.5 6.5 6.5 6.5 6.5 6.7 6.8 7.6 8.0 8.3 8.5 8.5 8.7 8.8 8.9 9.0 9.1 9.2 9.2 9.2 9.4 9.5 9.3 9.1 9.2 9.1 9.1 9.2 9.3 9.1 9.2 9.3
6.5 6.5 6.5 6.7 6.5 6.5 6.5 6.5 6.5 6.5 6.5 6.5 6.5 6.5 6.5 6.5 7.0 7.3 7.6 7.8 8.0 8.2 8.5 8.4 8.6 8.7 8.8 9.0 9.1 9.2 9.2 9.1 9.4 9.4 9.2 8.8 9.4 9.5 9.4 9.4 9.4 9.1 9.3 9.1
6.5 6.5 6.5 6.6 6.8 6.6 6.5 6.5 6.5 6.5 6.5 6.5 6.5 6.5 6.5 6.5 6.5 7.1 7.3 7.6 7.7 8.1 8.3 8.5 8.7 8.9 9.0 9.1 9.1 9.2 9.2 9.2 9.3 9.2 8.9 9.3 9.5 9.5 9.3 8.9 9.0 8.7 7.4 6.0
6.5 6.5 6.5 6.5 6.9 6.7 6.5 6.5 6.5 6.5 6.5 6.5 6.5 6.5 6.5 6.5 6.5 6.5 6.7 7.3 7.7 8.1 8.3 8.5 8.7 8.8 9.0 9.2 9.3 9.3 9.4 9.3 9.4 9.3 9.4 9.4 9.5 9.6 9.5 8.1 8.4 8.4 6.9 6.4
6.5 6.5 6.5 6.5 6.5 6.5 6.5 6.5 6.5 6.5 6.5 6.5 6.5 6.5 6.5 6.5 6.5 6.5 7.0 7.6 7.8 8.0 8.2 8.5 8.7 8.9 9.0 9.2 9.3 9.3 9.4 9.4 9.3 9.4 9.4 9.3 9.5 9.5 9.3 8.1 7.7 7.9 6.8 6.6
6.6 6.5 6.5 6.5 6.5 6.6 6.5 6.5 6.5 6.5 6.5 6.5 6.5 6.5 6.5 6.5 6.9 7.2 7.3 7.6 8.0 8.2 8.3 8.6 8.7 8.9 9.0 9.1 9.2 9.3 9.4 9.4 9.4 9.5 9.4 9.4 9.4 9.5 9.1 8.5 8.6 7.1 6.5 5.7
6.6 6.5 6.5 6.5 6.5 6.5 6.5 6.5 6.5 6.5 6.5 6.5 6.5 6.5 6.5 7.0 7.0 7.4 7.3 7.7 8.0 8.1 8.3 8.6 8.7 8.8 9.0 9.1 9.2 9.3 9.4 9.4 9.5 9.5 9.4 9.4 9.3 9.3 7.7 9.1 9.4 8.3 6.5 5.3
7.0 6.5 6.5 6.5 6.5 6.5 6.5 6.5 6.5 6.5 6.5 6.5 6.5 6.5 6.5 6.5 6.5 7.1 7.4 7.8 8.0 8.1 8.2 8.5 8.6 8.8 9.0 9.1 9.3 9.3 9.4 9.6 9.5 9.4 9.4 9.2 9.2 8.9 8.8 9.3 9.3 7.6 6.5 5.7
6.7 6.5 6.5 6.5 6.5 6.5 6.5 6.5 6.5 6.5 6.5 6.5 6.5 6.5 6.5 6.5 6.5 7.2 7.7 7.8 7.8 7.9 8.1 8.3 8.5 8.8 9.0 9.0 9.2 9.4 9.4 9.5 9.6 9.3 9.3 9.2 9.3 9.3 9.2 9.2 8.3 8.1 6.8 5.5
6.8 6.5 6.5 6.5 6.5 6.5 6.5 6.5 6.5 6.5 6.5 6.5 6.5 6.5 6.6 7.3 7.6 7.4 7.6 7.6 7.6 7.8 8.1 8.4 8.5 8.7 8.8 8.9 9.1 9.1 9.3 9.4 9.5 9.4 9.2 9.3 9.2 9.2 9.0 8.9 9.0 8.2 6.5 5.8
6.5 6.5 6.5 6.5 6.5 6.5 6.5 6.5 6.5 6.5 6.5 6.5 6.5 6.5 7.0 6.6 7.0 7.3 7.6 7.7 7.7 8.0 8.2 8.3 8.5 8.7 8.8 9.0 9.1 9.0 9.2 9.4 9.4 9.3 9.3 9.3 9.2 9.0 9.1 9.2 9.2 8.4 6.3 5.5
6.5 6.5 6.5 6.5 6.5 6.5 6.5 6.5 6.5 6.5 6.5 6.5 6.5 6.5 6.9 7.1 7.7 7.8 8.1 8.0 8.0 8.1 8.3 8.5 8.7 8.8 8.9 9.1 9.2 9.3 9.3 9.3 9.2 9.2 9.3 9.3 9.2 9.1 9.2 9.2 9.0 8.6 6.3 4.4
6.9 6.5 6.5 6.5 6.5 6.5 6.5 6.5 6.5 6.5 6.5 6.5 6.5 6.8 7.3 7.7 7.8 7.3 8.2 8.4 8.4 8.5 8.6 8.8 9.0 9.0 9.1 9.1 9.2 9.2 9.2 9.2 9.1 9.0 9.2 9.3 9.3 9.1 9.1 9.0 8.9 7.7 5.2 3.7
6.7 6.5 6.5 6.5 6.5 6.5 6.5 6.5 7.4 7.1 6.5 7.0 7.1 7.0 7.1 7.5 6.5 6.5 8.3 8.5 8.5 8.7 8.8 8.9 9.0 9.0 9.0 9.1 9.2 9.1 8.9 9.1 9.0 9.1 9.2 9.3 9.4 8.5 8.8 9.0 8.4 6.2 4.8 3.4
6.5 6.5 6.5 6.5 6.5 6.5 6.5 7.0 7.5 6.5 6.5 7.4 7.4 7.5 7.5 6.7 7.5 8.2 8.5 8.5 8.8 8.8 8.8 9.0 8.9 8.8 8.9 9.2 9.2 8.9 9.1 8.9 9.2 9.0 8.8 8.7 8.7 8.4 8.6 8.7 6.4 4.7 3.2 4.3
6.5 6.5 6.5 6.5 6.5 6.5 7.2 6.8 6.5 6.9 7.7 7.8 7.8 7.8 7.7 7.9 8.0 8.2 8.3 8.4 8.6 8.6 8.7 8.8 8.7 9.1 9.0 9.2 9.3 8.9 8.3 8.6 8.0 8.0 8.2 8.5 8.4 8.1 8.8 6.8 4.3 3.4 4.8 3.8
6.5 6.5 6.5 6.5 6.5 7.2 7.8 7.5 8.1 8.2 7.9 7.9 8.0 8.1 8.1 7.9 8.0 8.2 8.2 8.5 8.6 8.7 8.8 8.9 9.1 9.1 9.3 9.2 9.2 7.6 7.3 7.2 6.7 6.9 7.2 8.0 8.1 8.1 6.8 4.9 4.1 5.3 5.0 3.7
6.5 7.3 6.5 6.5 6.6 7.1 7.7 8.1 8.2 8.3 8.2 8.4 8.4 8.3 8.2 8.0 8.2 8.2 8.4 8.4 8.6 8.7 8.7 8.9 9.0 8.8 9.0 8.9 8.0 6.8 6.2 5.6 5.6 5.6 6.3 7.2 7.5 6.8 5.5 4.4 5.0 5.4 5.5 4.2
6.9 7.0 6.5 6.5 7.0 7.5 7.7 8.0 8.2 8.3 8.5 8.5 8.5 8.4 8.2 8.3 8.2 8.3 8.3 8.4 8.6 8.7 8.9 9.0 8.9 9.1 8.0 7.0 6.2 5.4 5.5 5.9 5.4 5.5 6.0 7.3 7.1 5.3 4.3 5.6 6.2 5.1 5.1 4.6
7.3 6.6 6.5 6.5 7.4 7.3 7.6 8.3 8.4 8.2 8.2 8.3 8.3 8.1 7.5 8.4 8.3 8.3 8.3 8.6 8.7 8.6 8.9 8.7 9.0 8.3 6.5 6.4 5.6 5.0 5.7 6.0 5.7 5.6 6.6 6.4 5.2 4.4 5.5 5.9 5.3 5.0 4.7 4.2
Wind_Speed
5 7 9 9 8 6 8 11 15 14 11 16 14 19 18 2 3 4 3 3 4 5 4 6 7 8 10 11 13 14 14 14 11 9 10 10 10 10 9 10 13 13 11 11
3 8 7 4 6 8 10 11 10 7 8 15 17 21 6 0 1 2 4 4 5 5 7 7 9 11 13 13 14 14 15 14 11 9 9 9 10 10 11 9 10 16 13 11
7 6 5 7 7 9 4 6 10 13 19 21 13 13 6 3 3 2 1 4 5 7 9 9 10 10 10 13 13 13 14 14 12 13 9 9 10 9 10 10 11 9 15 13
6 6 8 7 6 7 8 8 12 16 17 10 10 8 3 3 3 3 5 7 7 7 9 11 12 12 12 12 11 11 11 13 12 14 11 13 10 12 11 11 11 12 13 14
5 8 8 6 6 7 5 14 14 20 15 8 4 6 4 4 3 8 11 10 9 10 10 14 16 13 11 11 10 10 11 11 11 12 12 11 12 11 11 11 15 15 12 14
4 2 4 5 5 3 12 12 21 4 6 6 7 3 8 5 7 9 11 12 13 14 15 17 15 12 12 10 10 9 10 10 10 11 13 14 14 15 13 14 12 11 11 10
3 2 2 8 7 1 13 12 7 6 5 10 4 10 14 9 6 6 11 17 15 15 18 19 18 13 13 12 11 10 10 11 10 12 13 14 14 15 16 15 12 14 12 10
8 1 6 8 5 6 6 7 4 7 10 18 18 9 3 6 3 6 16 17 19 22 19 18 16 11 13 12 11 11 11 11 11 11 13 12 13 10 11 14 13 12 12 12
8 2 5 4 5 4 4 6 6 12 14 10 7 12 10 3 15 21 15 20 22 21 20 19 15 13 15 13 12 11 11 11 12 12 11 13 13 15 14 18 16 12 13 11
4 8 3 6 5 2 2 5 4 5 6 15 12 20 12 15 23 20 20 22 20 19 20 17 15 15 14 13 12 13 14 14 12 11 11 12 14 15 16 16 18 16 14 14
5 2 0 6 4 12 7 4 4 5 8 11 15 9 17 23 18 18 23 20 18 17 16 15 13 12 12 11 12 13 14 16 13 13 12 13 14 15 16 17 17 17 17 17
4 5 7 12 9 4 1 2 4 7 15 13 14 18 15 14 20 20 18 17 16 15 14 13 13 14 14 14 15 15 16 16 15 13 13 14 14 15 16 17 18 17 16 18
5 2 8 3 6 5 4 11 15 15 10 19 16 15 19 23 21 19 18 17 14 14 14 14 15 15 16 17 18 16 15 15 15 14 13 14 15 15 17 17 18 17 16 15
4 5 9 10 17 16 18 22 17 15 11 17 19 22 21 20 18 18 17 17 15 14 15 16 15 17 17 17 16 16 16 15 14 13 14 15 16 15 18 18 18 18 15 15
3 7 11 13 18 19 21 22 21 15 18 15 20 20 19 17 17 16 17 17 17 16 17 16 17 17 17 17 18 17 16 15 14 15 16 16 16 16 18 17 17 18 15 14
6 4 12 15 12 11 18 19 12 12 14 14 16 18 13 16 16 17 19 18 18 18 18 17 18 18 18 18 18 18 17 15 14 16 16 17 17 18 17 18 17 17 16 14
4 4 7 7 14 18 15 4 12 11 13 13 10 13 18 19 19 20 22 18 15 16 17 19 18 18 18 19 18 18 18 16 15 14 16 17 18 18 17 18 17 16 16 14
3 3 4 10 15 10 5 5 9 13 13 6 11 16 17 19 20 20 16 16 16 18 19 18 17 18 19 19 19 18 17 16 15 17 18 18 18 18 17 16 16 16 14 15
3 3 5 5 11 19 14 6 13 19 20 6 18 21 21 23 21 14 18 17 19 20 18 16 17 18 20 20 19 18 18 17 18 19 18 17 17 17 17 16 16 15 14 13
2 3 4 8 5 8 7 7 14 21 17 12 21 22 23 22 15 16 25 23 20 18 16 17 19 19 20 20 19 17 18 20 21 18 17 17 15 15 16 16 15 14 11 11
6 6 6 6 7 11 14 9 19 12 14 25 21 22 20 17 16 24 23 21 19 19 20 19 19 19 20 20 18 20 21 20 19 15 13 14 13 13 15 14 13 11 11 4
4 5 4 4 8 6 8 21 14 19 23 23 23 21 20 22 23 23 22 21 22 21 20 20 19 18 20 20 19 17 17 16 13 12 13 13 12 10 11 13 11 12 3 13
4 5 7 5 8 20 22 18 19 21 20 19 20 21 21 22 22 22 20 21 21 20 19 19 18 20 18 20 16 18 17 15 13 12 13 11 12 11 10 8 10 4 5 12
6 9 7 12 6 17 22 20 18 18 19 20 20 20 20 20 21 21 19 19 18 19 20 19 20 20 21 17 17 16 16 13 12 11 10 9 9 9 7 6 5 4 4 9
10 8 11 16 18 22 21 17 20 21 21 20 19 18 18 18 20 19 18 18 18 19 18 19 19 19 21 19 19 17 15 13 10 9 8 7 6 6 6 3 5 6 5 7
3 8 7 12 23 17 23 24 25 22 20 17 17 18 18 16 16 16 15 16 17 19 20 19 20 20 20 19 19 18 15 11 8 5 4 3 3 4 2 7 9 19 16 17
Wind_Direction
32 64 44 24 24 350 315 305 305 320 335 325 312 300 304 31 121 110 87 57 47 33 20 15 9 5 358 359 356 350 345 344 341 339 333 329 325 324 318 325 320 319 314 304
109 68 24 5 5 336 323 316 340 308 330 320 309 301 314 87 149 38 36 42 25 11 9 12 8 1 356 352 355 349 349 345 343 337 330 320 313 311 309 306 310 316 312 307
50 44 353 358 353 353 17 2 333 308 314 293 325 290 161 148 135 86 25 347 357 359 352 356 348 343 341 350 349 345 346 343 343 345 336 332 322 313 311 310 311 313 310 300
60 23 9 357 68 352 319 347 314 305 317 316 11 297 140 152 151 163 355 3 359 355 339 337 334 330 339 344 340 345 343 341 344 340 337 337 326 323 323 312 310 310 307 304
52 11 14 36 358 339 337 323 297 295 290 297 138 266 109 133 213 11 10 1 351 338 330 328 322 316 321 331 332 337 336 342 350 351 348 341 335 320 315 311 311 310 306 306
53 82 39 348 337 357 323 305 293 229 258 251 105 316 287 19 359 3 14 355 339 329 320 318 315 302 302 315 317 325 327 334 346 345 345 344 340 333 326 317 308 306 306 298
330 132 101 12 329 191 351 341 324 301 288 316 93 302 273 56 38 0 349 339 335 330 319 310 305 305 303 304 310 316 321 319 327 332 336 338 337 332 328 324 311 309 302 298
346 295 7 5 4 307 338 355 302 295 311 304 314 263 50 45 10 342 322 340 330 330 326 318 306 302 313 294 294 299 307 310 314 321 326 328 331 333 325 329 312 299 297 299
339 291 351 358 334 315 29 309 357 283 277 288 246 274 264 212 339 339 338 335 328 326 322 318 314 294 306 300 287 299 304 302 304 310 316 319 327 327 328 325 316 301 299 293
63 291 54 324 292 163 353 339 271 230 279 293 292 304 304 337 326 327 327 329 325 326 327 324 322 318 315 309 298 299 300 300 298 301 306 313 320 324 325 321 318 306 299 296
339 212 129 313 305 317 315 273 230 291 276 289 302 287 339 318 327 323 322 323 322 326 331 335 340 337 330 322 321 319 315 315 308 306 308 308 318 321 325 317 313 312 305 302
17 305 281 289 326 290 280 310 281 279 288 277 283 283 312 312 315 323 320 319 318 323 329 330 332 332 334 332 329 326 326 324 318 311 303 307 316 319 323 317 316 318 305 301
11 188 305 279 165 179 309 300 291 278 269 267 283 288 309 313 316 319 324 326 320 325 325 327 330 330 329 327 324 327 331 334 328 315 307 310 315 322 320 320 317 311 307 306
268 247 244 269 295 308 298 293 291 283 276 287 281 295 301 322 319 327 328 328 323 319 320 325 328 327 327 326 327 327 327 328 326 316 311 311 316 317 319 322 314 315 313 305
356 268 282 287 288 288 286 285 295 288 277 272 284 290 301 324 328 323 321 326 327 322 320 323 325 325 325 325 325 324 326 321 320 312 312 312 313 309 315 319 319 316 313 302
326 279 303 298 287 282 288 291 295 295 298 284 270 279 360 328 325 324 327 323 323 323 325 323 321 322 321 323 320 318 317 318 318 312 311 310 312 311 316 321 319 315 315 314
285 305 317 294 313 309 280 3 323 320 319 309 295 341 325 326 325 324 320 319 316 325 326 320 319 318 317 318 316 312 311 310 311 312 310 307 309 312 315 319 316 315 312 317
271 277 280 292 304 291 77 38 338 327 309 7 340 334 334 326 322 308 321 330 320 328 319 316 317 315 314 313 312 310 305 303 303 314 311 310 309 311 312 317 314 316 316 318
244 308 304 290 312 293 291 44 352 334 302 247 341 334 332 327 321 315 347 333 317 313 308 310 314 314 313 310 308 306 303 300 301 310 311 312 308 310 313 315 317 314 314 309
114 284 283 318 292 291 358 331 336 328 288 6 346 322 324 324 328 320 328 323 317 310 308 312 314 312 309 310 310 306 301 303 305 313 314 309 308 309 306 312 312 311 305 305
308 306 275 296 292 278 292 316 324 290 324 326 317 315 319 315 311 309 312 316 317 312 314 317 311 309 309 309 309 302 305 307 306 305 296 297 299 303 302 308 309 307 299 288
290 312 282 287 280 294 6 321 313 309 308 307 307 308 312 311 310 313 316 316 317 318 318 316 311 308 307 307 304 304 300 301 295 289 290 292 298 300 300 306 303 301 189 112
265 240 292 272 279 302 305 302 303 306 303 307 303 306 305 307 309 314 315 318 320 321 317 317 315 308 307 307 310 307 303 302 295 286 286 288 291 294 295 303 302 315 105 113
280 256 256 304 274 303 304 303 301 305 304 304 300 300 300 302 308 311 320 321 320 320 320 319 318 315 311 318 316 304 300 291 282 277 277 280 281 288 298 298 271 87 96 121
300 302 288 289 295 319 301 313 312 308 307 306 304 298 296 303 306 314 320 321 320 321 320 323 318 318 319 318 311 306 299 292 276 268 268 271 278 287 292 291 112 95 71 137
228 312 312 303 312 304 296 309 313 307 308 312 309 310 312 311 315 320 320 320 323 324 325 326 322 321 317 314 312 309 299 280 257 239 247 264 284 290 226 99 89 82 95 106